FW2347 Weather Reports


time (UTC)temp
C
wind
direction
speed
KPH
gust
KPH
rain 1hr
cm
rain 24hr
cm
rain mn
cm
humidity
%
barometer
mb
20260507201515 12 69 0.0 0.0 0.00 0.00 0.00 72 1013.1
20260507200010 13 69 0.0 0.0 0.00 0.00 0.00 71 1012.8
20260507194528 13 76 0.0 0.0 0.00 0.00 0.00 71 1012.6
20260507193055 13 275 0.0 0.0 0.00 0.00 0.00 73 1012.4
20260507191601 13 275 0.0 0.0 0.00 0.00 0.00 72 1011.9
20260507190110 14 275 0.0 0.0 0.00 0.00 0.00 70 1011.7
20260507184508 15 275 0.0 0.0 0.00 0.00 0.00 69 1011.6
20260507183035 15 284 0.0 0.0 0.00 0.00 0.00 68 1011.2
20260507181516 16 284 0.0 0.0 0.00 0.00 0.00 67 1010.8
20260507180109 16 238 0.0 0.0 0.00 0.00 0.00 67 1010.4
20260507174528 17 294 0.0 0.0 0.00 0.00 0.00 65 1010.2
20260507173021 17 311 0.0 0.0 0.00 0.00 0.00 64 1010.1
20260507171518 17 261 0.0 0.0 0.00 0.00 0.00 64 1009.9
20260507170026 17 259 0.0 0.0 0.00 0.00 0.00 63 1009.9
20260507164531 18 302 0.0 0.0 0.00 0.00 0.00 63 1009.7
20260507163033 18 261 0.0 0.0 0.00 0.00 0.00 62 1009.7
20260507161552 18 260 0.0 0.0 0.00 0.00 0.00 62 1009.4
20260507160117 18 306 0.0 0.0 0.00 0.00 0.00 62 1009.4
20260507154505 18 267 0.0 0.0 0.00 0.00 0.00 62 1009.2
20260507153021 18 242 0.0 0.0 0.00 0.00 0.00 62 1009.6
20260507151529 18 252 0.0 0.0 0.00 0.00 0.00 63 1009.6
20260507150038 18 321 0.0 0.0 0.00 0.00 0.00 64 1009.5
20260507144544 18 270 0.0 0.0 0.00 0.00 0.00 63 1009.7
20260507143002 18 234 0.0 0.0 0.00 0.00 0.00 61 1009.7
20260507141522 19 236 0.0 0.0 0.00 0.00 0.00 53 1009.6
20260507140037 18 288 0.0 0.0 0.00 0.00 0.00 56 1009.8
20260507134524 19 213 0.0 0.0 0.00 0.00 0.00 54 1010.0
20260507133016 20 245 0.0 0.0 0.00 0.00 0.00 56 1010.2
20260507131604 18 226 0.0 0.0 0.00 0.00 0.00 58 1010.5
20260507130049 18 276 0.0 0.0 0.00 0.00 0.00 57 1010.6
20260507124510 18 253 0.0 0.0 0.00 0.00 0.00 58 1010.7
20260507123027 18 277 0.0 0.0 0.00 0.00 0.00 59 1010.8
20260507121536 18 360 0.0 0.0 0.00 0.00 0.00 58 1010.9
20260507120105 17 247 0.0 0.0 0.00 0.00 0.00 61 1011.1
20260507114511 18 243 0.0 0.0 0.00 0.00 0.00 60 1011.2
20260507113056 18 281 0.0 0.0 0.00 0.00 0.00 60 1011.5
20260507111539 18 235 0.0 0.0 0.00 0.00 0.00 61 1011.6
20260507110048 17 227 0.0 0.0 0.00 0.00 0.00 63 1011.9
20260507104519 17 275 0.0 0.0 0.00 0.00 0.00 64 1012.1
20260507103008 17 239 0.0 0.0 0.00 0.00 0.00 66 1012.2
20260507101524 17 268 0.0 0.0 0.00 0.00 0.00 67 1012.2
20260507100029 17 251 0.0 0.0 0.00 0.00 0.00 67 1012.5
20260507094526 17 271 0.0 0.0 0.00 0.00 0.00 69 1012.6
20260507093046 16 246 0.0 0.0 0.00 0.00 0.00 69 1012.7
20260507091552 16 296 0.0 0.0 0.00 0.00 0.00 70 1012.6
20260507090107 16 250 0.0 0.0 0.00 0.00 0.00 71 1012.6
20260507084538 15 250 0.0 0.0 0.00 0.00 0.00 71 1012.9
20260507083030 15 290 0.0 0.0 0.00 0.00 0.00 72 1013.0
20260507081601 15 276 0.0 0.0 0.00 0.00 0.00 71 1013.1
20260507080109 14 218 0.0 0.0 0.00 0.00 0.00 70 1013.2
20260507074510 13 263 0.0 0.0 0.00 0.00 0.00 67 1013.2
20260507073023 13 273 0.0 0.0 0.00 0.00 0.00 62 1013.3
20260507071536 13 261 0.0 0.0 0.00 0.00 0.00 55 1013.3
20260507070028 13 230 0.0 0.0 0.00 0.00 0.00 46 1013.0
20260507064536 12 229 0.0 0.0 0.00 0.00 0.00 25 1013.0
20260507063038 10 230 0.0 0.0 0.00 0.00 0.00 18 1013.0
20260507061541 10 230 0.0 0.0 0.00 0.00 0.00 11 1013.0
20260507060051 8 232 0.0 0.0 0.00 0.00 0.00 11 1013.1
20260507054603 7 232 0.0 0.0 0.00 0.00 0.00 13 1012.8
20260507053108 6 229 0.0 0.0 0.00 0.00 0.00 14 1012.8
20260507051608 5 229 0.0 0.0 0.00 0.00 0.00 15 1012.7
20260507050006 5 229 0.0 0.0 0.00 0.00 0.00 17 1012.7
20260507044502 5 229 0.0 0.0 0.00 0.00 0.00 17 1012.7
20260507043028 6 229 0.0 0.0 0.00 0.00 0.00 17 1012.7
20260507041535 5 229 0.0 0.0 0.00 0.00 0.00 19 1012.6
20260507040047 5 229 0.0 0.0 0.00 0.00 0.00 20 1012.5
20260507034607 5 229 0.0 0.0 0.00 0.00 0.00 22 1012.5
20260507033006 5 229 0.0 0.0 0.00 0.00 0.00 22 1012.5
20260507031531 6 229 0.0 0.0 0.00 0.00 0.00 23 1012.5
20260507030036 6 229 0.0 0.0 0.00 0.00 0.00 25 1012.6
20260507024548 6 229 0.0 0.0 0.00 0.00 0.00 27 1012.6
20260507023055 6 229 0.0 0.0 0.00 0.00 0.00 28 1012.6
20260507021518 6 229 0.0 0.0 0.00 0.00 0.00 30 1012.6
20260507020026 7 229 0.0 0.0 0.00 0.00 0.00 27 1012.7
20260507014521 7 230 0.0 0.0 0.00 0.00 0.00 25 1012.7
20260507013022 7 234 0.0 0.0 0.00 0.00 0.00 26 1012.7
20260507011537 7 233 0.0 0.0 0.00 0.00 0.00 27 1012.8
20260507004602 7 234 0.0 0.0 0.00 0.00 0.00 30 1012.9
20260507003101 7 233 0.0 0.0 0.00 0.00 0.00 32 1013.0
20260507001608 7 233 0.0 0.0 0.00 0.00 0.00 36 1013.2
20260507000107 8 234 0.0 0.0 0.00 0.00 0.00 39 1013.2
20260506234515 8 234 0.0 0.0 0.00 0.00 0.00 42 1013.2
20260506233023 8 234 0.0 0.0 0.00 0.00 0.00 46 1013.2
20260506231540 8 234 0.0 0.0 0.00 0.00 0.00 51 1013.1
20260506230002 9 234 0.0 0.0 0.00 0.00 0.00 53 1013.0
20260506224517 10 233 0.0 0.0 0.00 0.00 0.00 57 1013.1
20260506223040 10 233 0.0 0.0 0.00 0.00 0.00 60 1013.0
20260506221542 10 234 0.0 0.0 0.00 0.00 0.00 63 1012.9
20260506220101 10 233 0.0 0.0 0.00 0.00 0.00 66 1012.8
20260506214514 10 233 0.0 0.0 0.00 0.00 0.00 69 1012.8
20260506213029 10 233 0.0 0.0 0.00 0.00 0.00 70 1012.6
20260506211535 10 234 0.0 0.0 0.00 0.00 0.00 72 1012.6
20260506210110 10 233 0.0 0.0 0.00 0.00 0.00 73 1012.5
20260506204603 11 234 0.0 0.0 0.00 0.00 0.00 73 1012.3
20260506203108 12 233 0.0 0.0 0.00 0.00 0.00 72 1012.0